Weather History for Vigo, Spain

Change the Weather History Date:

Wednesday, October 30, 2013

  Actual Average Record
Temperature  
Mean Temperature 52 °F -  
Max Temperature 63 °F 56 °F 79 °F (2014)
Min Temperature 41 °F 44 °F 32 °F (2010)
Degree Days  
Heating Degree Days 13    
Growing Degree Days 2 (Base 50)    
Moisture  
Dew Point 44 °F    
Average Humidity 84    
Maximum Humidity 100    
Minimum Humidity 48    
Precipitation  
Precipitation 0.00 in 0.27 in - ()
Sea Level Pressure  
Sea Level Pressure 30.30 in    
Wind  
Wind Speed 2 mph ()    
Max Wind Speed 7 mph    
Max Gust Speed -    
Visibility 2.0 miles    
Events Fog    
Averages and records for this station are not official NWS values.
T = Trace of Precipitation, MM = Missing Value Source: Averaged Metar Reports

Daily Weather History Graph

Daily Weather History Graph

Search for Another Location

Airport:

Trip Planner

Search our weather history database for the weather conditions in past years. The results will help you decide how hot, cold, wet, or windy it might be!

Date:

Astronomy

Oct. 30, 2013 Rise Set
Actual Time 8:05 AM CET 6:30 PM CET
Civil Twilight 7:36 AM CET 6:59 PM CET
Nautical Twilight 7:03 AM CET 7:32 PM CET
Astronomical Twilight 6:30 AM CET 8:05 PM CET
Moon 3:35 AM CET (10/30) 4:12 PM CET (10/30)
Length of Visible Light 11h 23m
Length of Day
10h 25m
Waning Crescent, 19% of the Moon is Illuminated
Oct 30
Waning Crescent
Nov 3
New
Nov 10
First Quarter
Nov 17
Full
Nov 25
Last Quarter

Hourly Weather History & Observations

Time (CET) Temp. Windchill Dew Point Humidity Pressure Visibility Wind Dir Wind Speed Gust Speed Precip Events Conditions
12:00 AM 48.2 °F - 46.4 °F 93% 30.33 in - Calm Calm - N/A   Clear
12:30 AM 46.4 °F - 44.6 °F 93% 30.33 in - Variable 2.3 mph - N/A   Clear
1:00 AM 46.4 °F - 44.6 °F 93% 30.30 in - Calm Calm - N/A   Clear
1:30 AM 46.4 °F - 44.6 °F 93% 30.30 in - Calm Calm - N/A   Clear
2:00 AM 46.4 °F - 44.6 °F 93% 30.30 in - Calm Calm - N/A   Clear
2:30 AM 46.4 °F - 44.6 °F 93% 30.30 in - Calm Calm - N/A   Clear
3:00 AM 44.6 °F - 44.6 °F 100% 30.30 in - Variable 1.2 mph - N/A   Clear
3:30 AM 44.6 °F - 44.6 °F 100% 30.30 in - Calm Calm - N/A   Clear
4:00 AM 44.6 °F - 42.8 °F 93% 30.30 in - Calm Calm - N/A   Clear
4:30 AM 44.6 °F - 42.8 °F 93% 30.30 in - Calm Calm - N/A   Clear
5:00 AM 44.6 °F - 42.8 °F 93% 30.30 in - Variable 1.2 mph - N/A   Clear
5:30 AM 44.6 °F - 42.8 °F 93% 30.30 in - Calm Calm - N/A   Clear
6:00 AM 44.6 °F - 42.8 °F 93% 30.30 in - Variable 1.2 mph - N/A   Clear
6:30 AM 42.8 °F - 42.8 °F 100% 30.30 in - Calm Calm - N/A   Clear
6:38 AM 42.8 °F - 42.8 °F 100% 30.30 in 0.6 mi Variable 1.2 mph - N/A   Unknown
7:00 AM 44 °F - 43 °F 94% 30.35 in 0 mi SW 3.5 mph - - Fog Patches of Fog
7:00 AM 44.6 °F - 44.6 °F 100% 30.30 in 0.2 mi Variable 1.2 mph - N/A Fog Patches of Fog
7:30 AM 42.8 °F 41.1 °F 42.8 °F 100% 30.30 in 0.2 mi WSW 3.5 mph - N/A Fog Patches of Fog
8:00 AM 42.8 °F 41.1 °F 42.8 °F 100% 30.30 in 0.3 mi SW 3.5 mph - N/A Fog Patches of Fog
8:30 AM 42.8 °F 40.1 °F 42.8 °F 100% 30.33 in 4.3 mi SW 4.6 mph - N/A Fog Patches of Fog
9:00 AM 42.8 °F 41.1 °F 41.0 °F 93% 30.33 in 0.2 mi SW 3.5 mph - N/A Fog Fog
9:30 AM 41.0 °F 37.1 °F 41.0 °F 100% 30.33 in 0.2 mi SW 5.8 mph - N/A Fog Fog
10:00 AM 41.0 °F 37.1 °F 41.0 °F 100% 30.33 in 0.2 mi SW 5.8 mph - N/A Fog Fog
10:30 AM 42.8 °F 39.3 °F 42.8 °F 100% 30.33 in 0.1 mi SW 5.8 mph - N/A Fog Fog
11:00 AM 42.8 °F 38.6 °F 42.8 °F 100% 30.33 in 0.1 mi SSW 6.9 mph - N/A Fog Fog
11:30 AM 44.6 °F 40.7 °F 44.6 °F 100% 30.33 in 0.1 mi SSW 6.9 mph - N/A Fog Fog
12:00 PM 46.4 °F 43.5 °F 46.4 °F 100% 30.33 in 0.1 mi SSW 5.8 mph - N/A Fog Fog
12:30 PM 48.2 °F - 48.2 °F 100% 30.33 in 0.2 mi SSW 4.6 mph - N/A Fog Fog
1:00 PM 51 °F - 47 °F 83% 30.33 in 0 mi SSW 4.6 mph - - Fog Partial Fog
1:00 PM 48.2 °F - 48.2 °F 100% 30.30 in 0.3 mi SSW 5.8 mph - N/A Fog Fog
1:30 PM 51.8 °F - 50.0 °F 94% 30.30 in 6.2 mi SSW 4.6 mph - N/A   Partly Cloudy
2:00 PM 57.2 °F - 46.4 °F 67% 30.30 in 6.2 mi SSW 4.6 mph - N/A   Partly Cloudy
2:30 PM 59.0 °F - 44.6 °F 59% 30.27 in 6.2 mi Variable 2.3 mph - N/A   Partly Cloudy
3:00 PM 62.6 °F - 42.8 °F 48% 30.27 in 6.2 mi Variable 1.2 mph - N/A   Partly Cloudy
3:30 PM 60.8 °F - 42.8 °F 52% 30.27 in 6.2 mi Variable 1.2 mph - N/A   Partly Cloudy
4:00 PM 59.0 °F - 41.0 °F 51% 30.27 in 6.2 mi Variable 2.3 mph - N/A   Partly Cloudy
4:30 PM 60.8 °F - 44.6 °F 55% 30.27 in - Variable 2.3 mph - N/A   Clear
5:00 PM 59.0 °F - 42.8 °F 55% 30.27 in - WNW 4.6 mph - N/A   Clear
5:30 PM 57.2 °F - 41.0 °F 55% 30.27 in - WNW 3.5 mph - N/A   Clear
6:00 PM 55.4 °F - 44.6 °F 67% 30.27 in - WNW 3.5 mph - N/A   Clear
6:30 PM 53.6 °F - 41.0 °F 62% 30.27 in - WNW 5.8 mph - N/A   Clear
7:00 PM 52 °F - 42 °F 60% 30.31 in 22 mi NW 3.5 mph - -   Clear
7:00 PM 51.8 °F - 42.8 °F 71% 30.27 in - NW 4.6 mph - N/A   Clear
7:30 PM 50.0 °F - 42.8 °F 76% 30.30 in - Variable 1.2 mph - N/A   Clear
8:00 PM 50.0 °F - 42.8 °F 76% 30.30 in - Variable 1.2 mph - N/A   Clear
8:30 PM 50.0 °F - 42.8 °F 76% 30.30 in - Variable 1.2 mph - N/A   Clear
9:00 PM 50.0 °F - 42.8 °F 76% 30.30 in - Variable 2.3 mph - N/A   Clear
9:30 PM 50.0 °F - 42.8 °F 76% 30.30 in - Variable 1.2 mph - N/A   Clear
10:00 PM 48.2 °F - 42.8 °F 82% 30.30 in - Calm Calm - N/A   Clear
10:30 PM 48.2 °F - 42.8 °F 82% 30.30 in - Variable 1.2 mph - N/A   Clear
11:00 PM 48.2 °F - 41.0 °F 76% 30.30 in - Variable 1.2 mph - N/A   Clear
11:30 PM 48.2 °F - 42.8 °F 82% 30.33 in - Calm Calm - N/A   Clear